User: anonymous   Login
Location: Unspecified
(0.0000°N, 0.0000°E)
Time: 01:07:57
(UTC+00:00)
Language:

GEESAT 4-08 - Orbit

View from above orbital plane
View from above orbital plane
View from above satellite
View from above satellite

Ground track
Ground track

The orbit is defined by the following mean orbital elements,

1 65126U          26145.60212359 +.00000000 +00000-0 +18458-3 0 00008
2 65126  49.9657 231.8419 0021327 254.4304 105.4279 14.82076915    08
Epoch (UTC): 25 May 2026 14:27:03
Eccentricity: 0.0021327
inclination: 49.9657°
perigee height: 608 km
apogee height: 638 km
right ascension of ascending node: 231.8419°
argument of perigee: 254.4304°
revolutions per day: 14.82076915
mean anomaly at epoch: 105.4279°

The dashed part of the orbit path shows where the satellite is in the earth's shadow,  

DLR